Time,TemperatureF,DewpointF,PressureIn,WindDirection,WindDirectionDegrees,WindSpeedMPH,WindSpeedGustMPH,Humidity,HourlyPrecipIn,Conditions,Clouds,dailyrainin,SoftwareType,DateUTC
2013-02-18 00:01:00,29.9,24.8,29.52,West,276,1.0,1.0,81,0.00,,,0.00,Wunderground v.1.15,2013-02-18 06:01:00,
2013-02-18 00:06:00,30.0,24.6,29.52,WSW,237,1.0,1.0,80,0.00,,,0.00,Wunderground v.1.15,2013-02-18 06:06:00,
2013-02-18 00:12:00,30.2,24.8,29.52,East,86,1.0,5.0,80,0.00,,,0.00,Wunderground v.1.15,2013-02-18 06:12:00,
2013-02-18 00:17:00,30.2,24.8,29.51,South,191,1.0,5.0,80,0.00,,,0.00,Wunderground v.1.15,2013-02-18 06:17:00,
2013-02-18 00:22:00,30.2,24.8,29.51,South,170,1.0,1.0,80,0.00,,,0.00,Wunderground v.1.15,2013-02-18 06:22:00,
2013-02-18 00:27:00,30.2,24.8,29.51,SW,235,1.0,1.0,80,0.00,,,0.00,Wunderground v.1.15,2013-02-18 06:27:00,
2013-02-18 00:32:00,30.1,24.7,29.51,WSW,242,1.0,1.0,80,0.00,,,0.00,Wunderground v.1.15,2013-02-18 06:32:00,
2013-02-18 00:38:00,30.0,24.6,29.50,NNE,32,1.0,2.0,80,0.00,,,0.00,Wunderground v.1.15,2013-02-18 06:38:00,
2013-02-18 00:43:00,29.9,24.5,29.50,SSE,163,1.0,2.0,80,0.00,,,0.00,Wunderground v.1.15,2013-02-18 06:43:00,
2013-02-18 00:48:00,29.9,24.5,29.50,ESE,115,0.0,2.0,80,0.00,,,0.00,Wunderground v.1.15,2013-02-18 06:48:00,
2013-02-18 00:53:00,29.8,24.7,29.50,South,181,0.0,1.0,81,0.00,,,0.00,Wunderground v.1.15,2013-02-18 06:53:00,
2013-02-18 00:58:00,29.8,24.7,29.50,NNE,16,0.0,1.0,81,0.00,,,0.00,Wunderground v.1.15,2013-02-18 06:58:00,
2013-02-18 01:03:00,29.9,24.8,29.50,NW,314,1.0,2.0,81,0.00,,,0.00,Wunderground v.1.15,2013-02-18 07:03:00,
2013-02-18 01:09:00,29.9,24.8,29.49,NNE,22,1.0,2.0,81,0.00,,,0.00,Wunderground v.1.15,2013-02-18 07:09:00,
2013-02-18 01:14:00,30.0,24.9,29.49,SE,137,1.0,1.0,81,0.00,,,0.00,Wunderground v.1.15,2013-02-18 07:14:00,
2013-02-18 01:19:00,30.1,25.0,29.49,East,99,1.0,2.0,81,0.00,,,0.00,Wunderground v.1.15,2013-02-18 07:19:00,
2013-02-18 01:24:00,30.2,25.1,29.49,West,276,1.0,2.0,81,0.00,,,0.00,Wunderground v.1.15,2013-02-18 07:24:00,
2013-02-18 01:29:00,30.1,24.7,29.48,North,360,1.0,2.0,80,0.00,,,0.00,Wunderground v.1.15,2013-02-18 07:29:00,
2013-02-18 01:34:00,30.2,24.8,29.48,SSE,153,0.0,3.0,80,0.00,,,0.00,Wunderground v.1.15,2013-02-18 07:34:00,
2013-02-18 01:39:00,30.1,25.0,29.48,West,278,1.0,3.0,81,0.00,,,0.00,Wunderground v.1.15,2013-02-18 07:39:00,
2013-02-18 01:44:00,30.2,25.1,29.48,NE,44,1.0,1.0,81,0.00,,,0.00,Wunderground v.1.15,2013-02-18 07:44:00,
2013-02-18 01:50:00,30.1,25.0,29.47,SW,226,1.0,2.0,81,0.00,,,0.00,Wunderground v.1.15,2013-02-18 07:50:00,
2013-02-18 01:55:00,30.1,25.0,29.47,West,260,1.0,2.0,81,0.00,,,0.00,Wunderground v.1.15,2013-02-18 07:55:00,
2013-02-18 02:00:00,30.2,25.1,29.47,WSW,256,1.0,1.0,81,0.00,,,0.00,Wunderground v.1.15,2013-02-18 08:00:00,
2013-02-18 02:06:00,30.3,25.2,29.47,West,267,1.0,5.0,81,0.00,,,0.00,Wunderground v.1.15,2013-02-18 08:06:00,
2013-02-18 02:11:00,30.4,25.3,29.47,SSW,196,1.0,3.0,81,0.00,,,0.00,Wunderground v.1.15,2013-02-18 08:11:00,
2013-02-18 02:16:00,30.3,25.2,29.46,East,96,1.0,3.0,81,0.00,,,0.00,Wunderground v.1.15,2013-02-18 08:16:00,
2013-02-18 02:21:00,30.4,25.6,29.47,WSW,250,1.0,5.0,82,0.00,,,0.00,Wunderground v.1.15,2013-02-18 08:21:00,
2013-02-18 02:26:00,30.6,25.5,29.47,West,259,2.0,5.0,81,0.00,,,0.00,Wunderground v.1.15,2013-02-18 08:26:00,
2013-02-18 02:31:00,30.8,25.7,29.46,East,101,1.0,2.0,81,0.00,,,0.00,Wunderground v.1.15,2013-02-18 08:31:00,
2013-02-18 02:36:00,30.8,25.7,29.46,West,267,1.0,2.0,81,0.00,,,0.00,Wunderground v.1.15,2013-02-18 08:36:00,
2013-02-18 02:41:00,30.8,25.7,29.46,WSW,249,1.0,1.0,81,0.00,,,0.00,Wunderground v.1.15,2013-02-18 08:41:00,
2013-02-18 02:46:00,30.8,25.7,29.46,WSW,244,1.0,2.0,81,0.00,,,0.00,Wunderground v.1.15,2013-02-18 08:46:00,
2013-02-18 02:52:00,30.8,25.7,29.45,SSE,165,1.0,1.0,81,0.00,,,0.00,Wunderground v.1.15,2013-02-18 08:52:00,
2013-02-18 02:57:00,30.6,25.5,29.45,WSW,250,1.0,2.0,81,0.00,,,0.00,Wunderground v.1.15,2013-02-18 08:57:00,
2013-02-18 03:02:00,30.5,25.4,29.45,West,269,1.0,1.0,81,0.00,,,0.00,Wunderground v.1.15,2013-02-18 09:02:00,
2013-02-18 03:07:00,30.3,25.5,29.45,SW,215,1.0,1.0,82,0.00,,,0.00,Wunderground v.1.15,2013-02-18 09:07:00,
2013-02-18 03:12:00,30.4,25.6,29.45,SSW,204,1.0,2.0,82,0.00,,,0.00,Wunderground v.1.15,2013-02-18 09:12:00,
2013-02-18 03:18:00,30.2,25.4,29.45,SSW,204,0.0,2.0,82,0.00,,,0.00,Wunderground v.1.15,2013-02-18 09:18:00,
2013-02-18 03:23:00,30.4,25.9,29.45,West,280,1.0,2.0,83,0.00,,,0.00,Wunderground v.1.15,2013-02-18 09:23:00,
2013-02-18 03:28:00,30.6,25.8,29.45,WSW,256,1.0,3.0,82,0.00,,,0.00,Wunderground v.1.15,2013-02-18 09:28:00,
2013-02-18 03:33:00,30.5,26.0,29.44,SW,229,0.0,1.0,83,0.00,,,0.00,Wunderground v.1.15,2013-02-18 09:33:00,
2013-02-18 03:38:00,30.5,26.0,29.44,SE,131,0.0,2.0,83,0.00,,,0.00,Wunderground v.1.15,2013-02-18 09:38:00,
2013-02-18 03:43:00,30.5,26.0,29.44,WSW,242,0.0,2.0,83,0.00,,,0.00,Wunderground v.1.15,2013-02-18 09:43:00,
2013-02-18 03:48:00,30.5,26.0,29.44,SW,222,0.0,2.0,83,0.00,,,0.00,Wunderground v.1.15,2013-02-18 09:48:00,
2013-02-18 03:53:00,30.5,26.0,29.44,SSE,159,0.0,1.0,83,0.00,,,0.00,Wunderground v.1.15,2013-02-18 09:53:00,
2013-02-18 03:58:00,30.4,26.1,29.43,WSW,255,0.0,1.0,84,0.00,,,0.00,Wunderground v.1.15,2013-02-18 09:58:00,
2013-02-18 04:03:00,30.4,26.1,29.43,SSW,204,0.0,2.0,84,0.00,,,0.00,Wunderground v.1.15,2013-02-18 10:03:00,
2013-02-18 04:08:00,30.5,26.2,29.42,SSW,213,0.0,2.0,84,0.00,,,0.00,Wunderground v.1.15,2013-02-18 10:08:00,
2013-02-18 04:14:00,30.5,26.2,29.42,WSW,240,0.0,1.0,84,0.00,,,0.00,Wunderground v.1.15,2013-02-18 10:14:00,
2013-02-18 04:19:00,30.4,26.1,29.42,WSW,245,0.0,2.0,84,0.00,,,0.00,Wunderground v.1.15,2013-02-18 10:19:00,
2013-02-18 04:24:00,30.6,26.3,29.43,SW,235,1.0,2.0,84,0.00,,,0.00,Wunderground v.1.15,2013-02-18 10:24:00,
2013-02-18 04:30:00,30.8,26.5,29.42,WSW,258,1.0,1.0,84,0.00,,,0.00,Wunderground v.1.15,2013-02-18 10:30:00,
2013-02-18 04:35:00,30.9,26.6,29.42,SW,223,1.0,1.0,84,0.00,,,0.00,Wunderground v.1.15,2013-02-18 10:35:00,
2013-02-18 04:40:00,30.8,26.5,29.43,WSW,241,1.0,1.0,84,0.00,,,0.00,Wunderground v.1.15,2013-02-18 10:40:00,
2013-02-18 04:45:00,30.7,26.4,29.43,WSW,255,1.0,1.0,84,0.00,,,0.00,Wunderground v.1.15,2013-02-18 10:45:00,
2013-02-18 04:50:00,30.7,26.4,29.43,SW,235,1.0,1.0,84,0.00,,,0.00,Wunderground v.1.15,2013-02-18 10:50:00,
2013-02-18 04:55:00,30.7,26.4,29.42,WSW,238,1.0,1.0,84,0.00,,,0.00,Wunderground v.1.15,2013-02-18 10:55:00,
2013-02-18 05:01:00,30.6,26.6,29.43,SW,232,0.0,2.0,85,0.00,,,0.00,Wunderground v.1.15,2013-02-18 11:01:00,
2013-02-18 05:07:00,30.6,26.6,29.43,SW,226,1.0,2.0,85,0.00,,,0.00,Wunderground v.1.15,2013-02-18 11:07:00,
2013-02-18 05:12:00,30.9,27.2,29.43,SW,215,1.0,2.0,86,0.00,,,0.00,Wunderground v.1.15,2013-02-18 11:12:00,
2013-02-18 05:17:00,31.2,27.2,29.43,WSW,250,1.0,3.0,85,0.00,,,0.00,Wunderground v.1.15,2013-02-18 11:17:00,
2013-02-18 05:22:00,31.2,27.2,29.43,West,263,1.0,2.0,85,0.00,,,0.00,Wunderground v.1.15,2013-02-18 11:22:00,
2013-02-18 05:27:00,31.2,27.2,29.42,West,259,1.0,2.0,85,0.00,,,0.00,Wunderground v.1.15,2013-02-18 11:27:00,
2013-02-18 05:33:00,31.1,27.4,29.42,WSW,242,1.0,3.0,86,0.00,,,0.00,Wunderground v.1.15,2013-02-18 11:33:00,
2013-02-18 05:38:00,31.1,27.4,29.43,WSW,248,1.0,3.0,86,0.00,,,0.00,Wunderground v.1.15,2013-02-18 11:38:00,
2013-02-18 05:43:00,31.0,27.3,29.43,WSW,242,1.0,2.0,86,0.00,,,0.00,Wunderground v.1.15,2013-02-18 11:43:00,
2013-02-18 05:48:00,31.0,27.3,29.42,WSW,242,1.0,2.0,86,0.00,,,0.00,Wunderground v.1.15,2013-02-18 11:48:00,
2013-02-18 05:53:00,31.1,27.7,29.42,WSW,243,1.0,2.0,87,0.00,,,0.00,Wunderground v.1.15,2013-02-18 11:53:00,
2013-02-18 05:58:00,30.9,27.2,29.42,WSW,242,1.0,2.0,86,0.00,,,0.00,Wunderground v.1.15,2013-02-18 11:58:00,
2013-02-18 06:04:00,30.8,27.4,29.42,WSW,249,1.0,2.0,87,0.00,,,0.00,Wunderground v.1.15,2013-02-18 12:04:00,
2013-02-18 06:09:00,30.6,27.2,29.42,SW,231,1.0,2.0,87,0.00,,,0.00,Wunderground v.1.15,2013-02-18 12:09:00,
2013-02-18 06:14:00,30.6,27.5,29.43,West,272,1.0,1.0,88,0.00,,,0.00,Wunderground v.1.15,2013-02-18 12:14:00,
2013-02-18 06:19:00,30.6,27.5,29.43,WSW,248,1.0,2.0,88,0.00,,,0.00,Wunderground v.1.15,2013-02-18 12:19:00,
2013-02-18 06:24:00,30.5,27.4,29.43,WSW,257,1.0,3.0,88,0.00,,,0.00,Wunderground v.1.15,2013-02-18 12:24:00,
2013-02-18 06:30:00,30.6,27.7,29.43,WSW,242,2.0,2.0,89,0.00,,,0.00,Wunderground v.1.15,2013-02-18 12:30:00,
2013-02-18 06:35:00,30.5,27.6,29.43,WSW,250,2.0,2.0,89,0.00,,,0.00,Wunderground v.1.15,2013-02-18 12:35:00,
2013-02-18 06:40:00,30.3,27.4,29.43,WSW,253,2.0,2.0,89,0.00,,,0.00,Wunderground v.1.15,2013-02-18 12:40:00,
2013-02-18 06:45:00,30.1,27.3,29.43,WSW,239,2.0,2.0,89,0.00,,,0.00,Wunderground v.1.15,2013-02-18 12:45:00,
2013-02-18 06:50:00,30.1,27.5,29.42,WSW,245,2.0,2.0,90,0.00,,,0.00,Wunderground v.1.15,2013-02-18 12:50:00,
2013-02-18 06:56:00,30.2,27.9,29.42,West,262,2.0,3.0,91,0.00,,,0.00,Wunderground v.1.15,2013-02-18 12:56:00,
2013-02-18 07:01:00,30.4,28.1,29.42,WSW,257,2.0,2.0,91,0.00,,,0.00,Wunderground v.1.15,2013-02-18 13:01:00,
2013-02-18 07:06:00,30.5,28.2,29.42,WSW,255,1.0,2.0,91,0.00,,,0.00,Wunderground v.1.15,2013-02-18 13:06:00,
2013-02-18 07:11:00,30.6,28.3,29.42,WSW,255,1.0,1.0,91,0.00,,,0.00,Wunderground v.1.15,2013-02-18 13:11:00,
2013-02-18 07:16:00,30.6,28.3,29.43,West,259,1.0,2.0,91,0.00,,,0.00,Wunderground v.1.15,2013-02-18 13:16:00,
2013-02-18 07:22:00,30.4,27.8,29.43,West,259,1.0,1.0,90,0.00,,,0.00,Wunderground v.1.15,2013-02-18 13:22:00,
2013-02-18 07:27:00,30.2,27.6,29.43,WSW,251,1.0,1.0,90,0.00,,,0.00,Wunderground v.1.15,2013-02-18 13:27:00,
2013-02-18 07:32:00,30.0,27.7,29.43,WSW,252,0.0,1.0,91,0.00,,,0.00,Wunderground v.1.15,2013-02-18 13:32:00,
2013-02-18 07:37:00,29.9,27.6,29.43,WSW,251,0.0,1.0,91,0.00,,,0.00,Wunderground v.1.15,2013-02-18 13:37:00,
2013-02-18 07:42:00,29.8,27.5,29.44,West,277,0.0,1.0,91,0.00,,,0.00,Wunderground v.1.15,2013-02-18 13:42:00,
2013-02-18 07:47:00,29.7,27.4,29.44,West,278,1.0,2.0,91,0.00,,,0.00,Wunderground v.1.15,2013-02-18 13:47:00,
2013-02-18 07:53:00,30.0,28.0,29.44,West,266,1.0,3.0,92,0.00,,,0.00,Wunderground v.1.15,2013-02-18 13:53:00,
2013-02-18 07:58:00,30.3,28.3,29.44,West,260,1.0,3.0,92,0.00,,,0.00,Wunderground v.1.15,2013-02-18 13:58:00,
2013-02-18 08:03:00,30.6,28.6,29.44,West,269,1.0,2.0,92,0.00,,,0.00,Wunderground v.1.15,2013-02-18 14:03:00,
2013-02-18 08:08:00,30.7,28.4,29.45,West,267,1.0,2.0,91,0.00,,,0.00,Wunderground v.1.15,2013-02-18 14:08:00,
2013-02-18 08:13:00,30.9,28.6,29.45,WSW,257,1.0,1.0,91,0.00,,,0.00,Wunderground v.1.15,2013-02-18 14:13:00,
2013-02-18 08:19:00,31.0,28.7,29.45,WNW,283,2.0,4.0,91,0.00,,,0.00,Wunderground v.1.15,2013-02-18 14:19:00,
2013-02-18 08:24:00,31.1,28.5,29.45,West,260,3.0,4.0,90,0.00,,,0.00,Wunderground v.1.15,2013-02-18 14:24:00,
2013-02-18 08:29:00,31.0,28.4,29.45,WSW,248,3.0,4.0,90,0.00,,,0.00,Wunderground v.1.15,2013-02-18 14:29:00,
2013-02-18 08:34:00,31.1,28.5,29.45,West,274,2.0,2.0,90,0.00,,,0.00,Wunderground v.1.15,2013-02-18 14:34:00,
2013-02-18 08:39:00,31.2,28.6,29.45,West,263,2.0,3.0,90,0.00,,,0.00,Wunderground v.1.15,2013-02-18 14:39:00,
2013-02-18 08:44:00,31.3,28.7,29.45,WSW,255,2.0,2.0,90,0.00,,,0.00,Wunderground v.1.15,2013-02-18 14:44:00,
2013-02-18 08:49:00,31.3,28.7,29.45,West,266,2.0,2.0,90,0.00,,,0.00,Wunderground v.1.15,2013-02-18 14:49:00,
2013-02-18 08:54:00,31.4,28.8,29.45,West,264,2.0,2.0,90,0.00,,,0.00,Wunderground v.1.15,2013-02-18 14:54:00,
2013-02-18 09:00:00,31.4,28.5,29.45,WSW,242,2.0,2.0,89,0.00,,,0.00,Wunderground v.1.15,2013-02-18 15:00:00,
2013-02-18 09:05:00,31.4,28.5,29.45,WSW,255,3.0,4.0,89,0.00,,,0.00,Wunderground v.1.15,2013-02-18 15:05:00,
2013-02-18 09:10:00,31.5,28.6,29.45,West,278,2.0,2.0,89,0.00,,,0.00,Wunderground v.1.15,2013-02-18 15:10:00,
2013-02-18 09:15:00,31.5,28.6,29.45,WNW,283,2.0,3.0,89,0.00,,,0.00,Wunderground v.1.15,2013-02-18 15:15:00,
2013-02-18 09:20:00,31.6,28.7,29.46,WSW,255,2.0,2.0,89,0.00,,,0.00,Wunderground v.1.15,2013-02-18 15:20:00,
2013-02-18 09:25:00,31.7,29.1,29.46,West,259,2.0,3.0,90,0.00,,,0.00,Wunderground v.1.15,2013-02-18 15:25:00,
2013-02-18 09:31:00,31.8,29.2,29.46,West,278,2.0,3.0,90,0.00,,,0.00,Wunderground v.1.15,2013-02-18 15:31:00,
2013-02-18 09:37:00,31.9,29.3,29.46,WSW,237,2.0,4.0,90,0.00,,,0.00,Wunderground v.1.15,2013-02-18 15:37:00,
2013-02-18 09:42:00,32.0,29.4,29.45,West,269,2.0,3.0,90,0.00,,,0.00,Wunderground v.1.15,2013-02-18 15:42:00,
2013-02-18 09:47:00,32.1,29.8,29.45,WSW,248,3.0,7.0,91,0.00,,,0.00,Wunderground v.1.15,2013-02-18 15:47:00,
2013-02-18 09:52:00,32.2,29.9,29.45,West,274,4.0,6.0,91,0.00,,,0.00,Wunderground v.1.15,2013-02-18 15:52:00,
2013-02-18 09:57:00,32.3,30.0,29.44,WSW,253,4.0,6.0,91,0.00,,,0.00,Wunderground v.1.15,2013-02-18 15:57:00,
2013-02-18 10:02:00,32.4,30.3,29.45,West,276,4.0,4.0,92,0.00,,,0.00,Wunderground v.1.15,2013-02-18 16:02:00,
2013-02-18 10:07:00,32.5,30.4,29.45,West,276,4.0,6.0,92,0.00,,,0.00,Wunderground v.1.15,2013-02-18 16:07:00,
2013-02-18 10:13:00,32.6,30.5,29.45,West,260,5.0,6.0,92,0.00,,,0.00,Wunderground v.1.15,2013-02-18 16:13:00,
2013-02-18 10:18:00,32.7,30.9,29.45,SSW,200,4.0,6.0,93,0.00,,,0.00,Wunderground v.1.15,2013-02-18 16:18:00,
2013-02-18 10:23:00,32.7,30.9,29.45,West,276,4.0,5.0,93,0.00,,,0.00,Wunderground v.1.15,2013-02-18 16:23:00,
2013-02-18 10:28:00,32.9,31.1,29.46,West,262,4.0,5.0,93,0.00,,,0.00,Wunderground v.1.15,2013-02-18 16:28:00,
2013-02-18 10:33:00,33.0,31.2,29.46,West,274,4.0,5.0,93,0.00,,,0.00,Wunderground v.1.15,2013-02-18 16:33:00,
2013-02-18 10:39:00,33.2,31.4,29.47,WNW,283,4.0,5.0,93,0.00,,,0.00,Wunderground v.1.15,2013-02-18 16:39:00,
2013-02-18 10:44:00,33.1,31.0,29.47,WSW,248,5.0,8.0,92,0.00,,,0.00,Wunderground v.1.15,2013-02-18 16:44:00,
2013-02-18 10:49:00,32.2,29.9,29.47,WSW,253,7.0,9.0,91,0.00,,,0.00,Wunderground v.1.15,2013-02-18 16:49:00,
2013-02-18 10:54:00,31.3,29.0,29.47,WNW,291,8.0,10.0,91,0.00,,,0.00,Wunderground v.1.15,2013-02-18 16:54:00,
2013-02-18 11:00:00,30.7,28.7,29.47,West,273,6.0,6.0,92,0.00,,,0.00,Wunderground v.1.15,2013-02-18 17:00:00,
2013-02-18 11:05:00,30.2,27.9,29.48,West,266,5.0,7.0,91,0.00,,,0.00,Wunderground v.1.15,2013-02-18 17:05:00,
2013-02-18 11:10:00,29.9,27.9,29.48,West,281,5.0,7.0,92,0.00,,,0.00,Wunderground v.1.15,2013-02-18 17:10:00,
2013-02-18 11:16:00,29.8,27.5,29.48,West,279,5.0,7.0,91,0.00,,,0.00,Wunderground v.1.15,2013-02-18 17:16:00,
2013-02-18 11:21:00,29.8,27.5,29.48,WSW,257,5.0,6.0,91,0.00,,,0.00,Wunderground v.1.15,2013-02-18 17:21:00,
2013-02-18 11:26:00,29.6,26.5,29.48,NNW,339,7.0,9.0,88,0.00,,,0.00,Wunderground v.1.15,2013-02-18 17:26:00,
2013-02-18 11:32:00,29.4,26.0,29.48,NW,309,7.0,7.0,87,0.00,,,0.00,Wunderground v.1.15,2013-02-18 17:32:00,
2013-02-18 11:37:00,29.3,25.6,29.48,West,269,5.0,9.0,86,0.00,,,0.00,Wunderground v.1.15,2013-02-18 17:37:00,
2013-02-18 11:42:00,29.2,25.5,29.48,West,270,4.0,8.0,86,0.00,,,0.00,Wunderground v.1.15,2013-02-18 17:42:00,
2013-02-18 11:48:00,29.1,25.4,29.48,WNW,289,6.0,8.0,86,0.00,,,0.00,Wunderground v.1.15,2013-02-18 17:48:00,
2013-02-18 11:54:00,28.9,25.5,29.49,West,269,7.0,9.0,87,0.00,,,0.00,Wunderground v.1.15,2013-02-18 17:54:00,
2013-02-18 11:59:00,28.8,25.1,29.49,NW,310,7.0,10.0,86,0.00,,,0.00,Wunderground v.1.15,2013-02-18 17:59:00,
2013-02-18 12:04:00,28.9,25.0,29.49,West,273,5.0,6.0,85,0.00,,,0.00,Wunderground v.1.15,2013-02-18 18:04:00,
2013-02-18 12:09:00,28.9,25.0,29.48,WNW,288,5.0,7.0,85,0.00,,,0.00,Wunderground v.1.15,2013-02-18 18:09:00,
2013-02-18 12:14:00,28.6,24.7,29.48,WNW,303,6.0,8.0,85,0.00,,,0.00,Wunderground v.1.15,2013-02-18 18:14:00,
2013-02-18 12:19:00,28.5,24.6,29.48,West,281,5.0,8.0,85,0.00,,,0.00,Wunderground v.1.15,2013-02-18 18:19:00,
2013-02-18 12:24:00,27.9,23.1,29.48,West,280,6.0,11.0,82,0.00,,,0.00,Wunderground v.1.15,2013-02-18 18:24:00,
2013-02-18 12:29:00,27.0,22.2,29.49,West,274,8.0,13.0,82,0.00,,,0.00,Wunderground v.1.15,2013-02-18 18:29:00,
2013-02-18 12:34:00,26.5,21.7,29.48,West,271,9.0,12.0,82,0.00,,,0.00,Wunderground v.1.15,2013-02-18 18:34:00,
2013-02-18 12:39:00,26.4,21.9,29.49,WNW,297,8.0,12.0,83,0.00,,,0.00,Wunderground v.1.15,2013-02-18 18:39:00,
2013-02-18 12:44:00,26.4,21.9,29.49,WNW,285,7.0,8.0,83,0.00,,,0.00,Wunderground v.1.15,2013-02-18 18:44:00,
2013-02-18 12:49:00,26.5,22.0,29.49,NNW,335,5.0,10.0,83,0.00,,,0.00,Wunderground v.1.15,2013-02-18 18:49:00,
2013-02-18 12:54:00,26.6,22.1,29.49,WNW,291,4.0,5.0,83,0.00,,,0.00,Wunderground v.1.15,2013-02-18 18:54:00,
2013-02-18 12:59:00,26.6,22.1,29.49,West,259,4.0,7.0,83,0.00,,,0.00,Wunderground v.1.15,2013-02-18 18:59:00,
2013-02-18 13:05:00,25.8,21.1,29.49,West,259,6.0,11.0,82,0.00,,,0.00,Wunderground v.1.15,2013-02-18 19:05:00,
2013-02-18 13:10:00,25.1,20.4,29.49,WNW,288,8.0,8.0,82,0.00,,,0.00,Wunderground v.1.15,2013-02-18 19:10:00,
2013-02-18 13:15:00,24.9,20.5,29.49,West,260,7.0,10.0,83,0.00,,,0.00,Wunderground v.1.15,2013-02-18 19:15:00,
2013-02-18 13:21:00,24.7,20.0,29.49,West,261,8.0,8.0,82,0.00,,,0.00,Wunderground v.1.15,2013-02-18 19:21:00,
2013-02-18 13:26:00,24.1,19.4,29.50,WSW,256,10.0,15.0,82,0.00,,,0.00,Wunderground v.1.15,2013-02-18 19:26:00,
2013-02-18 13:31:00,23.8,19.4,29.50,West,261,9.0,13.0,83,0.00,,,0.00,Wunderground v.1.15,2013-02-18 19:31:00,
2013-02-18 13:36:00,23.7,19.3,29.50,West,281,8.0,13.0,83,0.00,,,0.00,Wunderground v.1.15,2013-02-18 19:36:00,
2013-02-18 13:41:00,23.3,18.3,29.51,WSW,245,8.0,8.0,81,0.00,,,0.00,Wunderground v.1.15,2013-02-18 19:41:00,
2013-02-18 13:46:00,23.0,18.0,29.51,NW,315,8.0,11.0,81,0.00,,,0.00,Wunderground v.1.15,2013-02-18 19:46:00,
2013-02-18 13:51:00,22.9,18.2,29.51,West,259,6.0,7.0,82,0.00,,,0.00,Wunderground v.1.15,2013-02-18 19:51:00,
2013-02-18 13:57:00,22.9,17.9,29.51,West,266,7.0,10.0,81,0.00,,,0.00,Wunderground v.1.15,2013-02-18 19:57:00,
2013-02-18 14:02:00,22.6,17.6,29.52,WNW,283,7.0,10.0,81,0.00,,,0.00,Wunderground v.1.15,2013-02-18 20:02:00,
2013-02-18 14:07:00,22.1,16.9,29.52,NW,316,7.0,11.0,80,0.00,,,0.00,Wunderground v.1.15,2013-02-18 20:07:00,
2013-02-18 14:13:00,21.6,16.1,29.53,West,259,7.0,11.0,79,0.00,,,0.00,Wunderground v.1.15,2013-02-18 20:13:00,
2013-02-18 14:19:00,21.4,16.2,29.53,West,266,8.0,11.0,80,0.00,,,0.00,Wunderground v.1.15,2013-02-18 20:19:00,
2013-02-18 14:24:00,21.3,16.1,29.53,SW,232,8.0,10.0,80,0.00,,,0.00,Wunderground v.1.15,2013-02-18 20:24:00,
2013-02-18 14:29:00,20.9,15.4,29.53,West,269,8.0,11.0,79,0.00,,,0.00,Wunderground v.1.15,2013-02-18 20:29:00,
2013-02-18 14:34:00,20.4,14.9,29.53,NNW,340,8.0,11.0,79,0.00,,,0.00,Wunderground v.1.15,2013-02-18 20:34:00,
2013-02-18 14:39:00,20.0,14.8,29.54,West,271,7.0,11.0,80,0.00,,,0.00,Wunderground v.1.15,2013-02-18 20:39:00,
2013-02-18 14:45:00,20.0,14.5,29.54,NW,319,5.0,7.0,79,0.00,,,0.00,Wunderground v.1.15,2013-02-18 20:45:00,
2013-02-18 14:50:00,19.8,14.3,29.55,WNW,296,5.0,9.0,79,0.00,,,0.00,Wunderground v.1.15,2013-02-18 20:50:00,
2013-02-18 14:55:00,19.4,13.9,29.55,West,276,7.0,14.0,79,0.00,,,0.00,Wunderground v.1.15,2013-02-18 20:55:00,
2013-02-18 15:01:00,19.0,13.6,29.56,West,267,8.0,8.0,79,0.00,,,0.00,Wunderground v.1.15,2013-02-18 21:01:00,
2013-02-18 15:06:00,18.8,13.7,29.56,West,259,8.0,11.0,80,0.00,,,0.00,Wunderground v.1.15,2013-02-18 21:06:00,
2013-02-18 15:12:00,18.6,13.2,29.56,West,274,6.0,9.0,79,0.00,,,0.00,Wunderground v.1.15,2013-02-18 21:12:00,
2013-02-18 15:17:00,18.5,13.4,29.56,WNW,303,6.0,9.0,80,0.00,,,0.00,Wunderground v.1.15,2013-02-18 21:17:00,
2013-02-18 15:22:00,18.4,13.0,29.56,West,266,6.0,8.0,79,0.00,,,0.00,Wunderground v.1.15,2013-02-18 21:22:00,
2013-02-18 15:27:00,18.0,12.6,29.57,WNW,283,7.0,15.0,79,0.00,,,0.00,Wunderground v.1.15,2013-02-18 21:27:00,
2013-02-18 15:32:00,17.6,12.5,29.57,West,270,8.0,9.0,80,0.00,,,0.00,Wunderground v.1.15,2013-02-18 21:32:00,
2013-02-18 15:37:00,17.3,12.2,29.57,SW,235,8.0,10.0,80,0.00,,,0.00,Wunderground v.1.15,2013-02-18 21:37:00,
2013-02-18 15:42:00,17.2,12.1,29.57,WNW,283,8.0,11.0,80,0.00,,,0.00,Wunderground v.1.15,2013-02-18 21:42:00,
2013-02-18 15:47:00,17.3,12.5,29.58,WNW,287,7.0,11.0,81,0.00,,,0.00,Wunderground v.1.15,2013-02-18 21:47:00,
2013-02-18 15:52:00,17.2,12.1,29.58,WSW,248,6.0,10.0,80,0.00,,,0.00,Wunderground v.1.15,2013-02-18 21:52:00,
2013-02-18 15:58:00,17.1,12.0,29.58,West,260,6.0,10.0,80,0.00,,,0.00,Wunderground v.1.15,2013-02-18 21:58:00,
2013-02-18 16:04:00,16.8,12.0,29.58,West,274,6.0,9.0,81,0.00,,,0.00,Wunderground v.1.15,2013-02-18 22:04:00,
2013-02-18 16:09:00,16.4,11.3,29.59,WNW,287,6.0,9.0,80,0.00,,,0.00,Wunderground v.1.15,2013-02-18 22:09:00,
2013-02-18 16:14:00,16.2,11.1,29.59,West,270,6.0,7.0,80,0.00,,,0.00,Wunderground v.1.15,2013-02-18 22:14:00,
2013-02-18 16:19:00,16.1,11.0,29.59,West,267,6.0,8.0,80,0.00,,,0.00,Wunderground v.1.15,2013-02-18 22:19:00,
2013-02-18 16:24:00,15.8,10.7,29.59,West,261,7.0,10.0,80,0.00,,,0.00,Wunderground v.1.15,2013-02-18 22:24:00,
2013-02-18 16:30:00,15.6,10.5,29.60,WNW,290,8.0,8.0,80,0.00,,,0.00,Wunderground v.1.15,2013-02-18 22:30:00,
2013-02-18 16:35:00,15.5,10.7,29.60,WSW,255,7.0,8.0,81,0.00,,,0.00,Wunderground v.1.15,2013-02-18 22:35:00,
2013-02-18 16:40:00,15.4,10.6,29.60,West,262,6.0,7.0,81,0.00,,,0.00,Wunderground v.1.15,2013-02-18 22:40:00,
2013-02-18 16:45:00,15.3,10.5,29.60,WSW,248,6.0,8.0,81,0.00,,,0.00,Wunderground v.1.15,2013-02-18 22:45:00,
2013-02-18 16:50:00,15.3,10.5,29.60,WNW,300,6.0,8.0,81,0.00,,,0.00,Wunderground v.1.15,2013-02-18 22:50:00,
2013-02-18 16:55:00,15.1,10.3,29.60,West,278,7.0,10.0,81,0.00,,,0.00,Wunderground v.1.15,2013-02-18 22:55:00,
2013-02-18 17:01:00,14.9,10.4,29.60,WNW,285,7.0,7.0,82,0.00,,,0.00,Wunderground v.1.15,2013-02-18 23:01:00,
2013-02-18 17:06:00,14.8,10.3,29.61,WSW,246,5.0,12.0,82,0.00,,,0.00,Wunderground v.1.15,2013-02-18 23:06:00,
2013-02-18 17:11:00,14.7,9.9,29.61,WNW,287,5.0,6.0,81,0.00,,,0.00,Wunderground v.1.15,2013-02-18 23:11:00,
2013-02-18 17:16:00,14.7,9.9,29.61,West,274,6.0,10.0,81,0.00,,,0.00,Wunderground v.1.15,2013-02-18 23:16:00,
2013-02-18 17:21:00,14.4,9.6,29.61,NW,308,7.0,7.0,81,0.00,,,0.00,Wunderground v.1.15,2013-02-18 23:21:00,
2013-02-18 17:26:00,14.0,9.0,29.61,WNW,282,8.0,11.0,80,0.00,,,0.00,Wunderground v.1.15,2013-02-18 23:26:00,
2013-02-18 17:32:00,13.8,9.0,29.61,NNW,339,7.0,7.0,81,0.00,,,0.00,Wunderground v.1.15,2013-02-18 23:32:00,
2013-02-18 17:37:00,13.8,8.8,29.61,WNW,286,6.0,8.0,80,0.00,,,0.00,Wunderground v.1.15,2013-02-18 23:37:00,
2013-02-18 17:42:00,13.7,9.0,29.61,West,278,5.0,6.0,81,0.00,,,0.00,Wunderground v.1.15,2013-02-18 23:42:00,
2013-02-18 17:47:00,13.5,8.5,29.61,WNW,303,6.0,12.0,80,0.00,,,0.00,Wunderground v.1.15,2013-02-18 23:47:00,
2013-02-18 17:52:00,13.3,8.3,29.61,WSW,253,8.0,12.0,80,0.00,,,0.00,Wunderground v.1.15,2013-02-18 23:52:00,
2013-02-18 17:58:00,13.0,8.3,29.61,WNW,295,7.0,12.0,81,0.00,,,0.00,Wunderground v.1.15,2013-02-18 23:58:00,
2013-02-18 18:03:00,13.0,8.3,29.62,WNW,282,6.0,8.0,81,0.00,,,0.00,Wunderground v.1.15,2013-02-19 00:03:00,
2013-02-18 18:08:00,12.9,8.2,29.62,West,263,6.0,9.0,81,0.00,,,0.00,Wunderground v.1.15,2013-02-19 00:08:00,
2013-02-18 18:13:00,12.6,7.9,29.62,West,277,6.0,9.0,81,0.00,,,0.00,Wunderground v.1.15,2013-02-19 00:13:00,
2013-02-18 18:18:00,12.4,7.7,29.63,WNW,284,7.0,11.0,81,0.00,,,0.00,Wunderground v.1.15,2013-02-19 00:18:00,
2013-02-18 18:24:00,12.2,8.0,29.63,West,263,7.0,9.0,83,0.00,,,0.00,Wunderground v.1.15,2013-02-19 00:24:00,
2013-02-18 18:29:00,12.2,8.0,29.63,NNW,340,6.0,9.0,83,0.00,,,0.00,Wunderground v.1.15,2013-02-19 00:29:00,
2013-02-18 18:34:00,12.2,8.0,29.63,WNW,285,5.0,8.0,83,0.00,,,0.00,Wunderground v.1.15,2013-02-19 00:34:00,
2013-02-18 18:40:00,12.2,8.0,29.64,WNW,293,4.0,4.0,83,0.00,,,0.00,Wunderground v.1.15,2013-02-19 00:40:00,
2013-02-18 18:45:00,12.1,7.9,29.64,NW,309,5.0,10.0,83,0.00,,,0.00,Wunderground v.1.15,2013-02-19 00:45:00,
2013-02-18 18:50:00,12.0,7.6,29.64,NW,318,4.0,4.0,82,0.00,,,0.00,Wunderground v.1.15,2013-02-19 00:50:00,
2013-02-18 18:56:00,11.9,7.7,29.64,WNW,287,4.0,8.0,83,0.00,,,0.00,Wunderground v.1.15,2013-02-19 00:56:00,
2013-02-18 19:01:00,11.7,7.5,29.65,WNW,290,5.0,5.0,83,0.00,,,0.00,Wunderground v.1.15,2013-02-19 01:01:00,
2013-02-18 19:06:00,11.7,7.5,29.65,WNW,300,4.0,10.0,83,0.00,,,0.00,Wunderground v.1.15,2013-02-19 01:06:00,
2013-02-18 19:11:00,11.5,6.8,29.65,West,266,5.0,8.0,81,0.00,,,0.00,Wunderground v.1.15,2013-02-19 01:11:00,
2013-02-18 19:16:00,11.2,6.2,29.65,West,264,6.0,11.0,80,0.00,,,0.00,Wunderground v.1.15,2013-02-19 01:16:00,
2013-02-18 19:21:00,11.0,6.3,29.65,NW,309,6.0,9.0,81,0.00,,,0.00,Wunderground v.1.15,2013-02-19 01:21:00,
2013-02-18 19:26:00,10.9,5.9,29.66,West,274,5.0,10.0,80,0.00,,,0.00,Wunderground v.1.15,2013-02-19 01:26:00,
2013-02-18 19:31:00,10.7,5.5,29.65,WNW,296,6.0,6.0,79,0.00,,,0.00,Wunderground v.1.15,2013-02-19 01:31:00,
2013-02-18 19:36:00,10.5,5.5,29.66,NW,311,5.0,6.0,80,0.00,,,0.00,Wunderground v.1.15,2013-02-19 01:36:00,
2013-02-18 19:41:00,10.3,5.1,29.66,WNW,293,4.0,5.0,79,0.00,,,0.00,Wunderground v.1.15,2013-02-19 01:41:00,
2013-02-18 19:47:00,10.0,4.8,29.66,WSW,248,5.0,5.0,79,0.00,,,0.00,Wunderground v.1.15,2013-02-19 01:47:00,
2013-02-18 19:52:00,9.8,4.6,29.66,West,280,4.0,8.0,79,0.00,,,0.00,Wunderground v.1.15,2013-02-19 01:52:00,
2013-02-18 19:57:00,9.7,4.8,29.67,NW,312,4.0,9.0,80,0.00,,,0.00,Wunderground v.1.15,2013-02-19 01:57:00,
2013-02-18 20:02:00,9.6,4.7,29.67,NW,316,5.0,6.0,80,0.00,,,0.00,Wunderground v.1.15,2013-02-19 02:02:00,
2013-02-18 20:08:00,9.4,4.5,29.67,WNW,303,4.0,10.0,80,0.00,,,0.00,Wunderground v.1.15,2013-02-19 02:08:00,
2013-02-18 20:13:00,9.2,4.3,29.67,WNW,293,4.0,6.0,80,0.00,,,0.00,Wunderground v.1.15,2013-02-19 02:13:00,
2013-02-18 20:19:00,8.7,3.8,29.67,West,268,5.0,6.0,80,0.00,,,0.00,Wunderground v.1.15,2013-02-19 02:19:00,
2013-02-18 20:24:00,8.5,3.9,29.67,WSW,241,6.0,7.0,81,0.00,,,0.00,Wunderground v.1.15,2013-02-19 02:24:00,
2013-02-18 20:29:00,8.3,3.9,29.67,WNW,293,6.0,9.0,82,0.00,,,0.00,Wunderground v.1.15,2013-02-19 02:29:00,
2013-02-18 20:34:00,8.1,3.7,29.67,West,268,5.0,9.0,82,0.00,,,0.00,Wunderground v.1.15,2013-02-19 02:34:00,
2013-02-18 20:39:00,8.0,3.9,29.67,West,263,5.0,9.0,83,0.00,,,0.00,Wunderground v.1.15,2013-02-19 02:39:00,
2013-02-18 20:45:00,7.9,3.8,29.67,West,267,5.0,8.0,83,0.00,,,0.00,Wunderground v.1.15,2013-02-19 02:45:00,
2013-02-18 20:50:00,7.8,3.7,29.67,WNW,296,5.0,5.0,83,0.00,,,0.00,Wunderground v.1.15,2013-02-19 02:50:00,
2013-02-18 20:55:00,7.8,4.0,29.68,West,273,4.0,5.0,84,0.00,,,0.00,Wunderground v.1.15,2013-02-19 02:55:00,
2013-02-18 21:01:00,7.8,4.0,29.68,WNW,295,4.0,4.0,84,0.00,,,0.00,Wunderground v.1.15,2013-02-19 03:01:00,
2013-02-18 21:06:00,7.8,4.2,29.68,West,274,4.0,6.0,85,0.00,,,0.00,Wunderground v.1.15,2013-02-19 03:06:00,
2013-02-18 21:11:00,7.8,4.2,29.68,NW,309,4.0,4.0,85,0.00,,,0.00,Wunderground v.1.15,2013-02-19 03:11:00,
2013-02-18 21:16:00,7.6,4.0,29.68,West,264,4.0,6.0,85,0.00,,,0.00,Wunderground v.1.15,2013-02-19 03:16:00,
2013-02-18 21:21:00,7.5,3.9,29.68,WNW,298,4.0,4.0,85,0.00,,,0.00,Wunderground v.1.15,2013-02-19 03:21:00,
2013-02-18 21:27:00,7.4,4.1,29.69,WSW,253,4.0,5.0,86,0.00,,,0.00,Wunderground v.1.15,2013-02-19 03:27:00,
2013-02-18 21:32:00,7.2,3.9,29.69,WNW,287,4.0,5.0,86,0.00,,,0.00,Wunderground v.1.15,2013-02-19 03:32:00,
2013-02-18 21:38:00,6.9,3.8,29.69,West,264,5.0,7.0,87,0.00,,,0.00,Wunderground v.1.15,2013-02-19 03:38:00,
2013-02-18 21:43:00,6.9,3.8,29.69,West,280,4.0,7.0,87,0.00,,,0.00,Wunderground v.1.15,2013-02-19 03:43:00,
2013-02-18 21:48:00,6.7,3.7,29.69,WNW,288,4.0,7.0,87,0.00,,,0.00,Wunderground v.1.15,2013-02-19 03:48:00,
2013-02-18 21:53:00,6.6,3.8,29.69,NW,314,4.0,6.0,88,0.00,,,0.00,Wunderground v.1.15,2013-02-19 03:53:00,
2013-02-18 21:58:00,6.6,3.8,29.69,West,270,4.0,6.0,88,0.00,,,0.00,Wunderground v.1.15,2013-02-19 03:58:00,
2013-02-18 22:04:00,6.5,3.7,29.69,West,273,4.0,4.0,88,0.00,,,0.00,Wunderground v.1.15,2013-02-19 04:04:00,
2013-02-18 22:09:00,6.4,3.6,29.69,NNW,327,4.0,5.0,88,0.00,,,0.00,Wunderground v.1.15,2013-02-19 04:09:00,
2013-02-18 22:14:00,6.3,3.5,29.69,WNW,295,3.0,6.0,88,0.00,,,0.00,Wunderground v.1.15,2013-02-19 04:14:00,
2013-02-18 22:20:00,6.1,3.3,29.69,West,277,4.0,4.0,88,0.00,,,0.00,Wunderground v.1.15,2013-02-19 04:20:00,
2013-02-18 22:25:00,5.9,3.1,29.69,NW,318,5.0,6.0,88,0.00,,,0.00,Wunderground v.1.15,2013-02-19 04:25:00,
2013-02-18 22:30:00,5.8,3.0,29.69,SW,236,5.0,5.0,88,0.00,,,0.00,Wunderground v.1.15,2013-02-19 04:30:00,
2013-02-18 22:35:00,5.6,2.8,29.70,West,271,5.0,6.0,88,0.00,,,0.00,Wunderground v.1.15,2013-02-19 04:35:00,
2013-02-18 22:40:00,5.6,2.8,29.69,West,281,4.0,5.0,88,0.00,,,0.00,Wunderground v.1.15,2013-02-19 04:40:00,
2013-02-18 22:45:00,5.5,2.7,29.69,WNW,288,4.0,6.0,88,0.00,,,0.00,Wunderground v.1.15,2013-02-19 04:45:00,
2013-02-18 22:51:00,5.4,2.6,29.70,WNW,286,4.0,7.0,88,0.00,,,0.00,Wunderground v.1.15,2013-02-19 04:51:00,
2013-02-18 22:56:00,5.3,2.5,29.70,WSW,241,4.0,7.0,88,0.00,,,0.00,Wunderground v.1.15,2013-02-19 04:56:00,
2013-02-18 23:00:00,5.3,2.5,29.70,NW,312,4.0,4.0,88,0.00,,,0.00,Wunderground v.1.15,2013-02-19 05:00:00,
2013-02-18 23:01:00,5.2,2.4,29.70,West,273,4.0,5.0,88,0.00,,,0.00,Wunderground v.1.15,2013-02-19 05:01:00,
2013-02-18 23:02:00,5.2,2.4,29.70,West,280,4.0,5.0,88,0.00,,,0.00,Wunderground v.1.15,2013-02-19 05:02:00,
2013-02-18 23:07:00,5.1,2.3,29.70,West,278,4.0,5.0,88,0.00,,,0.00,Wunderground v.1.15,2013-02-19 05:07:00,
2013-02-18 23:10:00,5.0,2.2,29.70,West,260,4.0,6.0,88,0.00,,,0.00,Wunderground v.1.15,2013-02-19 05:10:00,
2013-02-18 23:15:00,4.8,2.0,29.70,WNW,288,4.0,6.0,88,0.00,,,0.00,Wunderground v.1.15,2013-02-19 05:15:00,
2013-02-18 23:20:00,4.6,1.6,29.70,WNW,300,4.0,4.0,87,0.00,,,0.00,Wunderground v.1.15,2013-02-19 05:20:00,
2013-02-18 23:26:00,4.4,1.4,29.70,WNW,284,4.0,5.0,87,0.00,,,0.00,Wunderground v.1.15,2013-02-19 05:26:00,
2013-02-18 23:31:00,4.2,1.2,29.71,WNW,293,4.0,8.0,87,0.00,,,0.00,Wunderground v.1.15,2013-02-19 05:31:00,
2013-02-18 23:36:00,4.1,1.1,29.71,WNW,294,4.0,8.0,87,0.00,,,0.00,Wunderground v.1.15,2013-02-19 05:36:00,
2013-02-18 23:41:00,4.0,1.2,29.72,West,259,3.0,3.0,88,0.00,,,0.00,Wunderground v.1.15,2013-02-19 05:41:00,
2013-02-18 23:46:00,4.1,1.3,29.72,NW,314,3.0,3.0,88,0.00,,,0.00,Wunderground v.1.15,2013-02-19 05:46:00,
2013-02-18 23:52:00,4.2,1.4,29.72,West,275,4.0,5.0,88,0.00,,,0.00,Wunderground v.1.15,2013-02-19 05:52:00,
2013-02-18 23:57:00,4.3,1.5,29.73,WNW,295,4.0,5.0,88,0.00,,,0.00,Wunderground v.1.15,2013-02-19 05:57:00,